Theta_e
296 296 297 315 315 314 314 314 315 317 319 320 321 323 323 323 324 324 324 324 324 323 323 324 324 325 325 326 326 327 329 330 331 331 332 332 332 333 332 332 332 332 332 332 333 334 334 335 336 335 336 337 339 339 340 340 341 341 339 340 342 341 342 342 344 341 343 343 344 345 345 346 345 344 344 342 342 342 342 342 343 340 339 343 345
294 296 296 296 315 314 313 313 315 317 318 320 321 322 322 322 323 323 323 323 323 324 323 324 323 324 325 325 326 328 329 330 331 330 331 331 332 332 332 332 332 332 332 331 332 333 333 333 333 335 335 337 337 338 339 339 340 341 339 339 343 341 342 343 342 342 343 344 344 345 344 345 345 345 344 343 343 343 343 343 342 336 335 344 343
297 296 296 299 314 315 313 313 315 316 318 319 321 322 322 322 323 323 323 323 322 322 322 323 323 324 325 325 326 329 330 330 330 331 331 331 331 331 332 331 331 331 331 332 331 331 331 332 332 332 333 334 335 336 337 338 337 338 339 339 339 341 341 343 342 342 342 344 344 344 343 345 344 343 341 343 344 344 342 341 341 341 338 343 342
297 296 296 300 315 314 312 312 314 316 318 319 321 321 322 322 323 323 322 323 323 323 323 323 323 324 324 325 327 328 329 330 330 330 330 331 331 332 331 331 330 331 331 331 331 331 330 331 331 332 331 332 333 333 335 336 337 338 340 340 340 341 340 341 342 341 343 343 344 342 341 340 343 344 344 343 343 343 342 341 341 342 341 340 340
296 296 297 296 296 308 312 313 315 317 318 319 321 321 321 322 323 323 322 322 323 323 322 323 323 324 324 325 326 326 327 329 329 329 329 330 330 331 331 330 329 330 330 330 330 330 332 331 332 333 333 332 331 332 333 335 337 339 337 339 340 340 339 340 342 341 343 342 343 342 339 338 339 343 342 342 343 342 342 341 341 341 340 339 339
296 296 296 296 296 297 314 313 316 317 318 319 320 321 320 322 322 322 322 322 323 323 323 323 324 324 324 324 325 326 326 328 329 328 328 330 330 329 330 329 329 328 329 328 329 330 331 331 331 331 330 331 330 331 332 333 336 337 338 338 339 340 339 339 340 341 341 342 342 339 336 335 336 339 342 342 342 341 341 341 341 341 340 340 339
296 296 296 296 296 301 313 314 315 316 317 319 320 320 320 321 321 321 322 322 322 322 322 323 323 322 322 322 324 325 326 327 327 328 329 329 328 328 328 327 328 327 327 327 329 329 330 330 329 330 330 330 330 330 331 334 335 336 337 338 338 339 338 338 338 340 342 341 338 333 333 334 334 334 341 340 342 342 341 342 342 341 340 340 339
295 297 296 296 296 303 313 314 315 316 317 319 319 319 320 320 320 320 321 321 322 321 322 321 321 320 321 322 323 325 325 326 327 328 329 328 328 327 327 327 327 327 327 327 328 327 328 329 328 328 329 330 331 329 331 334 334 335 336 338 339 337 338 338 337 337 339 337 333 331 333 333 333 331 339 338 341 343 342 342 341 340 339 338 336
297 296 297 297 295 314 314 314 314 315 317 318 318 319 319 319 319 320 320 320 320 320 320 319 319 319 320 321 322 323 324 326 327 328 327 326 326 326 326 327 326 326 326 325 325 326 326 327 327 327 328 329 329 329 332 333 333 334 335 337 336 336 337 337 336 337 337 334 330 329 332 332 330 330 338 338 340 342 342 340 340 340 339 336 334
295 294 294 294 294 310 313 314 314 315 317 317 317 318 318 318 318 319 319 319 319 319 318 318 318 319 319 320 321 321 322 323 324 326 325 326 325 325 325 325 324 323 323 323 323 323 325 325 326 326 326 327 329 329 330 331 333 332 334 336 334 335 336 338 337 337 334 331 328 328 329 333 327 329 336 339 339 341 340 340 337 338 338 337 335
293 293 293 294 294 312 314 313 313 315 316 316 316 316 316 317 317 318 318 318 318 318 318 317 317 317 318 319 319 320 320 321 322 324 324 325 324 324 324 324 323 323 322 323 323 322 323 324 326 326 326 327 328 329 329 330 332 333 333 334 334 334 336 337 337 335 333 329 328 327 334 334 326 327 340 340 339 339 339 340 340 339 338 336 335
293 293 293 294 308 314 315 313 313 314 315 315 315 315 315 316 317 317 317 317 317 317 317 316 316 316 316 317 318 318 319 321 322 323 324 324 325 325 324 324 322 322 323 323 324 323 322 323 324 325 325 326 327 328 329 329 330 331 332 333 333 333 334 333 335 333 329 328 327 327 329 331 325 329 340 341 339 338 338 337 337 337 337 336 335
295 294 294 294 295 312 315 314 313 314 314 315 315 314 314 314 316 316 316 316 316 316 316 315 315 315 315 316 316 317 318 320 321 322 322 322 323 323 324 323 323 323 323 323 323 324 323 322 322 323 324 325 326 327 328 328 329 330 332 332 333 333 333 332 334 332 328 327 327 326 328 327 324 335 339 341 339 337 338 337 336 336 336 335 333
296 295 294 295 296 308 314 314 314 313 313 314 314 314 313 313 315 315 315 315 315 315 314 314 314 313 313 313 314 316 317 319 321 321 321 321 322 323 322 322 323 322 323 323 323 322 322 322 322 322 323 324 324 325 326 327 328 330 331 332 331 331 331 331 333 331 328 326 327 325 326 327 322 335 338 339 340 338 337 336 336 336 336 334 332
295 296 296 297 296 298 311 315 314 314 313 313 313 313 312 313 313 314 314 314 314 314 314 313 312 312 311 311 313 315 316 318 319 319 319 320 321 321 321 321 322 322 323 322 322 322 322 321 322 322 322 323 323 324 325 327 327 328 329 330 331 330 329 329 331 331 327 325 325 327 324 327 331 335 338 338 340 338 338 336 336 337 336 333 331
296 296 296 296 297 296 297 308 313 314 313 313 313 312 312 312 312 313 313 313 313 312 312 311 311 310 310 310 311 313 315 317 318 318 318 319 319 319 320 321 321 322 322 322 324 323 321 321 322 321 321 322 323 323 324 326 327 328 328 329 329 328 328 328 330 329 325 324 324 325 324 324 334 336 338 338 341 339 339 337 337 336 336 334 331
298 301 298 298 296 296 296 299 305 313 315 313 312 311 311 311 311 312 311 311 311 311 311 310 309 309 309 308 309 311 314 316 317 317 317 317 318 319 320 321 321 321 322 323 322 323 322 321 321 320 321 321 322 323 324 325 326 327 327 328 327 327 327 326 329 327 326 325 325 324 323 323 332 337 337 338 339 340 339 337 337 336 335 334 331
296 296 298 297 295 296 298 297 299 297 298 303 308 310 311 312 312 311 311 310 310 310 309 308 308 308 308 308 308 309 311 313 314 316 316 317 318 318 319 321 322 322 323 323 324 323 321 320 319 320 320 321 321 322 323 324 325 325 326 326 326 326 326 326 328 327 325 327 325 325 323 329 332 336 337 338 337 339 337 338 337 335 335 334 330
295 295 296 296 296 295 296 296 299 296 295 296 295 298 310 312 312 311 311 310 310 310 309 308 307 307 307 307 307 307 307 309 311 314 314 316 317 317 317 319 322 321 322 323 321 321 320 319 318 318 319 320 321 322 323 322 323 324 325 325 325 325 325 327 327 326 325 326 325 325 322 330 333 335 337 337 337 341 337 336 337 336 335 334 333
295 297 296 296 296 296 296 295 295 295 295 295 295 295 303 311 311 310 311 310 310 309 309 308 307 305 306 305 305 302 301 301 309 306 312 313 314 314 316 318 319 320 321 322 322 320 320 318 317 317 319 319 321 321 322 321 322 322 323 323 323 323 324 327 326 325 324 325 325 325 327 331 334 335 336 335 341 340 337 335 336 337 334 333 333
297 295 294 295 296 296 296 295 295 296 295 295 296 296 299 309 304 307 308 309 309 308 307 305 305 301 301 302 300 295 296 296 299 302 309 308 312 313 315 317 318 318 319 320 321 320 319 317 316 317 318 318 319 320 320 320 320 321 321 321 321 320 323 326 326 325 323 324 325 324 329 333 334 336 337 341 339 337 338 335 335 333 331 330 333
294 296 296 294 294 294 295 294 294 294 294 296 296 296 298 303 295 294 296 301 304 306 299 298 300 292 299 294 293 295 295 295 299 305 306 308 309 312 314 316 316 317 319 319 320 320 319 317 315 316 318 318 317 312 313 316 318 320 319 319 318 321 323 326 325 324 323 322 324 325 330 333 334 337 337 339 337 337 338 335 334 334 333 330 332
294 294 294 293 293 294 294 294 295 294 294 294 296 296 298 295 295 294 296 302 300 299 295 296 291 290 292 290 294 292 294 296 299 305 307 309 308 311 314 315 315 316 318 318 317 319 318 317 315 316 317 317 314 312 310 308 309 316 316 314 317 321 324 325 323 322 322 322 322 326 331 333 335 336 339 337 338 336 336 335 335 333 334 331 332
293 293 295 296 295 295 295 294 294 293 294 295 296 296 295 294 295 294 293 293 294 296 293 292 291 291 291 291 291 293 294 293 301 304 306 304 306 310 313 314 314 313 315 313 315 316 318 315 316 316 314 313 312 311 309 307 308 309 311 314 317 320 324 324 322 321 322 323 321 328 332 333 336 337 338 337 336 335 336 333 334 334 334 332 333
292 294 296 296 294 294 294 294 294 295 294 294 298 296 294 296 293 293 293 294 294 294 294 292 291 291 291 291 291 293 292 293 296 300 302 304 305 307 309 311 311 309 312 310 312 313 314 309 306 307 306 309 309 308 307 307 308 310 312 314 317 320 323 322 322 322 323 324 326 331 334 338 336 336 336 337 335 333 333 332 333 334 335 334 334
294 295 297 295 293 294 294 294 294 294 295 294 295 296 300 295 293 294 295 295 294 294 294 292 292 292 290 291 295 291 290 292 295 298 301 304 306 307 308 310 311 309 310 310 311 312 312 312 306 304 303 304 304 305 305 308 308 309 312 315 318 322 322 321 321 322 323 325 328 329 332 335 335 334 334 333 333 333 332 332 334 337 336 335 334
292 294 295 294 295 294 294 293 293 294 294 294 293 294 294 294 293 293 296 297 294 295 293 292 293 292 290 292 293 290 290 291 294 297 299 303 306 306 306 309 310 309 309 310 310 311 312 312 311 307 303 302 303 305 305 306 307 312 315 317 318 322 321 321 320 320 321 323 325 327 331 335 335 334 333 333 332 332 332 332 337 337 336 334 335
291 294 292 292 294 294 294 293 294 293 294 293 293 293 294 293 294 299 294 296 299 295 293 292 294 291 293 292 294 290 289 290 292 295 297 302 305 306 307 308 310 310 310 310 309 310 311 311 312 312 310 304 303 304 307 309 311 316 317 318 321 321 320 319 319 319 320 321 322 325 328 333 335 335 335 335 336 333 333 334 337 337 337 336 335
292 294 294 291 293 295 295 294 293 296 295 294 294 294 293 293 293 292 294 300 296 294 292 293 292 291 291 291 292 291 290 290 291 293 296 301 303 305 307 307 309 310 310 309 309 309 310 310 310 311 312 310 309 307 310 312 315 318 319 320 320 319 318 318 318 318 318 319 321 322 324 329 331 333 334 335 336 336 336 333 335 336 335 335 335
294 294 292 293 293 292 294 295 295 294 295 294 295 293 293 293 294 293 293 297 294 293 294 292 291 290 290 291 291 291 291 290 290 292 294 298 301 304 304 305 307 309 310 309 309 309 309 310 309 310 310 310 311 311 313 314 315 317 320 318 318 317 317 316 317 317 318 319 319 321 323 325 329 331 329 332 333 334 334 334 334 333 333 333 333
293 294 293 293 295 295 295 295 294 298 295 294 294 294 294 293 295 294 293 294 293 295 293 292 291 290 291 290 290 290 293 291 290 291 293 296 299 301 302 303 305 307 309 309 310 309 309 309 309 309 310 310 310 311 312 313 314 316 316 316 315 316 315 316 316 316 317 318 318 318 322 324 326 330 331 329 331 332 332 332 333 333 332 333 331
292 294 294 293 293 293 294 294 294 294 299 295 296 296 296 294 296 294 294 294 293 294 294 292 294 291 291 290 289 289 294 291 289 291 293 294 296 299 300 302 303 306 308 308 309 309 308 308 310 310 310 310 310 310 311 311 312 313 315 315 315 314 314 315 315 315 315 316 316 317 318 320 322 325 328 332 332 331 331 331 331 331 332 331 331
292 293 292 293 293 293 293 294 293 293 295 295 294 293 294 294 294 293 294 296 293 293 293 294 293 291 292 290 290 289 294 290 289 290 294 292 295 297 299 300 302 304 306 307 308 308 307 305 307 309 309 309 309 308 309 309 308 309 311 312 313 313 313 313 313 313 313 313 314 314 314 314 315 319 321 323 326 330 331 331 330 330 330 330 330
292 291 292 293 294 294 295 296 295 293 294 293 294 294 294 294 296 295 295 294 292 292 295 294 293 293 291 290 289 290 294 290 289 290 290 291 293 295 296 298 300 302 304 305 306 307 307 306 306 308 307 307 307 307 308 308 307 308 308 309 310 310 311 312 311 312 312 311 310 312 312 313 312 312 314 319 321 324 327 328 329 329 329 330 330
291 292 292 293 294 293 297 295 297 295 295 294 295 296 296 295 294 294 294 293 294 293 293 293 291 292 292 290 289 290 293 290 290 290 290 290 291 292 294 295 298 300 301 303 305 306 306 305 306 307 307 306 307 307 306 306 306 306 306 307 308 309 309 308 307 306 307 306 307 308 309 310 310 310 309 308 318 320 322 324 326 327 328 329 329
291 292 292 294 293 291 292 293 294 294 294 295 294 294 294 292 292 298 295 292 292 293 293 292 292 291 291 291 289 290 293 290 290 289 289 290 290 290 291 293 296 299 300 302 303 304 305 305 305 305 306 306 306 306 306 305 305 305 306 306 307 307 308 308 307 306 304 304 303 304 304 305 305 305 308 305 304 308 317 319 322 324 326 327 328
290 291 292 291 292 291 294 295 294 293 293 292 292 291 292 292 292 292 292 292 292 293 292 291 291 291 290 290 290 290 291 290 290 290 289 290 290 290 290 291 294 296 298 300 301 302 303 304 304 304 305 305 306 305 305 305 304 305 305 305 306 306 306 307 306 305 306 304 302 303 303 303 303 307 303 304 304 304 310 314 317 320 321 322 324
290 292 291 291 292 291 291 293 293 292 292 292 293 292 293 292 292 291 294 292 291 291 291 290 291 290 289 290 290 290 292 291 289 290 289 291 291 288 289 290 293 295 296 298 299 300 301 302 303 303 304 305 304 304 304 304 304 304 304 304 304 305 305 306 306 305 306 306 304 303 302 302 302 303 303 304 305 305 306 309 314 316 317 317 319
290 290 290 290 290 291 293 292 295 293 292 292 291 293 292 291 291 291 291 291 290 290 290 291 291 290 290 290 291 292 292 291 290 290 289 291 290 289 289 289 292 293 293 295 297 298 299 299 299 300 300 301 303 303 303 303 303 302 301 302 304 304 305 305 305 306 306 305 305 305 303 303 303 303 304 305 305 306 307 307 306 306 307 311 314
290 291 293 291 291 290 290 291 292 292 292 293 292 292 291 292 292 292 293 292 291 293 292 291 290 290 292 291 290 289 290 292 290 290 289 291 290 288 288 289 290 292 292 292 294 296 296 297 297 297 298 298 300 302 301 300 301 301 299 299 300 304 305 304 304 304 304 304 305 305 305 305 304 305 305 305 304 304 304 304 304 305 305 307 310
291 290 291 292 291 291 291 293 292 291 292 292 292 292 292 293 290 289 290 289 291 293 293 291 291 291 292 291 291 291 289 289 292 290 290 291 290 288 287 288 288 291 291 291 290 292 294 294 295 293 297 298 297 297 301 300 301 298 299 299 299 299 300 300 303 304 304 304 304 303 304 302 303 302 302 301 301 300 300 302 303 303 304 304 305
292 291 291 291 290 290 291 292 292 291 290 292 292 292 292 293 293 293 290 289 291 291 292 294 295 294 293 292 291 290 289 289 291 290 292 289 289 289 288 287 288 289 291 290 289 293 293 295 295 297 292 294 296 294 298 297 297 296 296 298 296 298 297 298 298 299 300 300 300 301 301 301 301 301 300 299 299 299 300 301 301 301 302 302 303
290 290 290 291 291 291 291 291 291 291 292 293 294 292 292 291 292 291 291 291 288 290 290 292 291 292 291 291 291 290 290 290 289 291 290 289 288 288 289 288 288 291 288 288 287 288 289 291 292 292 296 294 292 291 296 296 296 292 294 295 291 296 298 295 294 297 299 300 299 299 300 300 300 300 299 299 298 299 300 300 300 300 301 301 302
291 291 291 291 292 294 292 292 292 291 291 292 296 295 293 293 291 291 289 290 293 293 290 289 289 291 294 291 291 291 291 291 290 289 290 289 288 289 288 288 288 290 289 287 286 286 287 291 292 293 291 293 293 291 292 293 295 294 293 292 293 292 293 293 293 297 294 296 296 298 298 299 299 299 299 299 299 299 299 299 299 300 300 301 301
291 291 292 292 293 292 292 291 291 291 291 293 292 291 292 291 290 290 291 289 288 289 291 293 293 293 294 294 294 292 292 292 291 289 290 290 288 287 287 287 288 288 289 287 286 287 286 287 288 291 291 291 292 288 289 292 291 292 295 293 290 288 289 291 292 294 291 295 295 296 296 297 298 298 298 298 298 298 299 299 299 299 299 300 300
290 291 290 291 290 292 291 291 291 291 291 291 291 292 291 291 291 291 293 290 291 292 292 291 292 292 292 292 293 292 292 291 290 290 289 291 289 288 287 287 287 289 289 288 287 287 286 286 286 290 290 289 292 290 290 290 289 292 293 294 294 293 291 290 291 291 293 291 291 291 293 295 294 296 296 297 297 298 298 299 299 299 299 299 299
290 289 288 289 289 290 290 290 291 292 292 291 290 294 290 290 290 291 291 291 290 290 288 288 289 292 292 292 292 292 291 291 292 290 290 289 289 288 287 287 287 287 290 288 287 287 288 287 290 290 289 291 290 288 287 288 289 289 291 292 293 292 293 294 289 285 291 290 289 289 291 290 291 293 295 296 297 297 297 297 298 298 298 298 298
289 289 289 290 290 290 290 292 292 294 292 291 291 292 292 290 289 289 292 291 290 291 292 292 291 291 291 292 292 292 292 292 292 292 291 290 290 290 288 287 287 286 289 288 287 287 288 288 289 289 288 289 289 289 287 286 287 289 288 290 289 290 290 291 290 292 291 290 293 288 288 291 288 290 293 294 295 295 296 296 296 297 297 297 298
290 290 290 290 290 291 293 293 294 293 293 292 293 291 294 291 290 289 291 291 291 292 292 290 291 291 290 292 292 293 293 293 292 292 292 291 292 291 289 288 288 287 290 289 287 286 286 286 286 287 287 287 288 289 289 287 287 287 287 286 287 288 287 289 290 290 291 286 290 288 289 287 285 290 290 290 292 293 294 295 296 296 296 297 297
289 291 290 291 292 293 294 294 293 293 292 292 292 292 291 292 291 290 290 291 291 291 289 291 292 291 292 292 292 293 293 293 293 293 292 292 292 291 291 290 288 288 291 288 286 286 285 285 285 285 285 286 286 287 289 288 288 287 288 287 286 286 285 286 287 288 287 290 290 290 291 290 290 291 290 293 294 293 293 294 294 295 296 296 297
290 291 292 292 291 292 293 293 292 292 292 292 292 292 292 291 292 291 290 291 290 290 291 292 292 292 292 292 292 292 292 292 293 293 293 293 293 293 292 291 291 290 290 288 288 288 286 285 285 284 285 285 285 285 286 287 288 288 288 287 287 288 287 284 286 286 287 285 285 287 287 288 290 290 292 292 294 295 295 294 294 294 295 295 296
Wind_Speed
4 6 6 7 9 8 8 8 8 8 10 11 11 11 11 12 12 13 13 13 13 14 14 14 14 14 14 15 14 16 17 17 17 18 18 18 18 18 18 17 17 17 16 17 16 17 17 16 17 19 20 19 18 17 17 16 17 17 15 14 16 14 14 13 9 12 14 13 12 12 13 15 16 16 17 17 12 9 7 7 6 5 4 10 14
2 5 4 4 8 8 8 8 8 9 10 11 11 11 11 12 12 13 13 13 13 14 14 14 14 14 15 15 16 16 17 17 17 17 18 18 18 19 19 17 17 18 18 17 16 16 17 18 18 19 20 19 19 17 17 18 18 14 15 16 16 15 14 14 12 14 13 12 12 13 14 14 15 14 15 15 14 13 8 9 7 4 3 11 12
4 4 5 4 8 9 8 9 8 9 10 10 10 11 11 12 12 12 13 13 13 14 14 14 14 15 15 16 17 18 18 18 18 18 18 18 18 19 19 19 18 18 19 20 18 18 18 18 19 18 20 21 18 17 17 18 17 17 15 15 16 16 15 14 13 11 13 13 14 14 14 15 15 14 14 13 16 13 9 9 7 6 6 12 10
2 4 3 4 7 8 9 9 8 9 10 10 10 11 11 12 13 13 13 13 13 14 14 14 14 15 15 16 17 19 19 19 19 18 18 19 19 19 19 19 18 18 18 19 19 18 19 19 19 20 20 21 19 17 17 18 18 18 15 14 15 17 12 13 12 15 12 13 13 13 7 7 10 14 16 16 15 12 9 10 9 8 10 11 11
5 5 3 3 4 7 9 9 9 9 10 10 11 11 11 12 13 13 13 13 13 14 14 14 14 15 16 16 17 17 19 20 19 18 18 19 19 19 19 20 18 17 18 18 19 19 17 18 18 18 20 21 18 16 16 17 20 19 15 14 14 14 12 14 14 14 12 13 12 11 5 6 6 14 16 16 14 12 10 11 11 11 11 11 10
4 5 3 3 4 4 8 9 9 10 10 10 11 11 11 12 13 13 13 13 13 13 14 14 15 15 16 16 17 18 17 18 19 19 20 19 19 19 19 19 20 20 20 19 19 19 19 18 17 17 18 20 18 16 16 17 20 19 18 13 14 13 14 14 14 12 11 13 14 6 6 6 7 8 17 14 13 10 11 11 11 12 11 11 10
4 3 3 3 3 5 9 8 9 10 10 10 10 11 11 12 13 13 13 13 13 13 13 14 14 15 15 16 17 17 17 19 19 20 20 20 19 19 20 19 19 19 19 20 20 19 19 19 18 18 18 19 19 16 15 17 19 19 18 15 13 12 10 11 11 14 13 11 6 4 5 7 6 4 15 13 14 13 12 12 12 12 11 11 11
3 4 4 3 3 6 8 8 9 10 10 10 10 11 11 12 12 12 12 12 13 13 13 14 14 14 15 15 16 17 18 19 19 20 20 20 21 21 20 20 21 21 20 20 20 20 19 19 18 18 18 18 19 16 16 17 17 18 19 15 15 12 10 10 13 12 15 7 4 5 5 6 6 4 12 13 14 15 13 13 12 12 11 11 10
4 4 4 3 4 7 8 7 9 9 10 10 10 11 12 12 12 12 12 12 12 12 13 14 14 14 15 15 16 17 18 19 20 19 19 20 20 20 21 21 22 22 21 20 20 20 20 19 18 17 19 18 19 17 16 16 15 16 17 16 13 13 10 12 13 15 10 5 4 5 5 5 4 3 11 13 15 15 14 12 11 12 11 11 9
5 4 3 3 4 6 7 7 8 9 10 10 11 11 12 12 12 12 12 12 12 13 13 14 14 15 15 16 16 17 17 18 20 19 19 19 20 21 21 21 22 21 21 20 19 19 19 20 20 18 18 20 19 18 17 17 15 14 14 14 7 7 10 13 14 13 5 5 3 6 4 4 3 3 9 13 14 15 13 11 3 4 5 13 10
4 4 3 3 4 7 8 6 7 9 9 10 11 11 12 12 12 12 12 12 13 13 14 14 14 15 15 16 16 17 17 18 18 19 19 19 19 20 21 22 22 21 20 20 18 17 17 18 19 19 18 18 18 18 17 16 14 13 12 11 7 5 6 9 13 5 4 4 5 6 8 9 3 4 11 15 14 14 12 6 6 8 13 12 11
5 4 4 3 4 7 8 6 6 8 9 10 10 11 12 12 11 11 12 13 13 13 14 14 14 15 15 16 16 17 18 18 18 17 18 19 20 21 22 22 22 22 21 20 20 16 16 16 18 17 18 17 17 17 17 17 14 13 11 11 6 4 4 9 9 7 2 5 4 5 5 7 5 5 12 15 14 13 10 8 7 9 11 10 8
5 4 4 3 3 6 7 6 6 7 9 9 10 11 12 11 11 11 12 13 13 14 14 14 15 15 15 16 17 17 17 17 17 17 18 18 19 21 21 22 22 21 21 19 18 18 17 16 16 17 16 16 17 17 17 17 13 13 13 10 9 5 6 9 4 8 5 5 5 4 6 5 4 8 12 15 15 13 12 11 10 10 10 8 7
4 4 4 3 3 5 7 7 6 7 8 9 10 11 11 11 11 11 11 13 13 14 14 14 15 15 15 16 17 17 17 16 16 17 18 18 19 20 20 21 21 21 20 20 19 18 18 18 17 18 17 16 16 16 17 16 12 12 11 9 10 8 13 8 4 8 6 7 6 5 5 4 4 9 13 14 14 14 12 12 12 12 10 10 10
4 5 4 3 4 4 6 7 6 7 8 9 9 10 11 11 10 11 12 12 13 14 14 14 14 15 15 16 16 17 16 16 16 17 17 18 19 19 20 21 21 20 20 19 19 19 18 17 18 17 18 16 16 16 16 17 13 12 11 9 7 10 11 5 2 4 6 6 6 5 6 6 7 9 13 14 14 12 14 12 12 12 12 10 9
2 5 4 4 4 4 4 5 6 7 7 8 9 10 10 10 10 10 11 12 13 13 14 14 14 15 15 16 16 16 16 16 16 17 18 17 18 19 20 21 20 20 20 20 20 20 20 19 17 17 18 18 16 15 15 16 12 10 11 9 8 8 9 10 2 5 4 5 4 4 6 4 8 10 13 14 16 14 15 13 13 12 12 10 9
4 4 4 6 4 4 4 3 4 7 6 6 7 8 9 9 9 10 11 12 12 12 13 13 14 14 15 16 16 16 16 15 15 15 17 17 18 19 19 21 21 20 20 20 21 21 19 16 17 16 17 17 13 14 14 14 9 9 10 7 9 9 8 10 2 4 4 5 4 4 5 5 7 11 12 13 14 16 14 15 14 12 11 11 8
4 3 4 4 4 3 3 4 3 3 3 4 6 7 9 8 9 10 10 10 11 11 12 13 13 14 15 15 16 16 15 15 15 16 16 16 17 18 20 21 23 21 20 20 20 20 17 13 15 16 14 14 12 13 12 10 7 8 9 8 9 8 9 9 1 4 4 4 4 3 4 6 9 11 13 14 14 15 16 15 13 11 11 10 8
4 4 4 3 4 2 3 3 3 3 3 3 3 4 8 7 7 8 8 9 9 10 10 11 11 12 13 14 15 15 14 15 15 15 16 17 17 18 18 20 22 21 21 22 22 20 15 13 14 13 11 10 11 10 9 5 6 8 7 8 9 8 7 5 1 4 5 4 4 4 4 8 10 12 14 13 14 13 13 14 14 12 10 11 11
4 3 3 2 3 3 3 3 3 3 3 3 3 4 5 6 6 6 7 7 8 8 9 9 10 10 11 12 13 11 10 10 15 11 14 16 16 16 18 19 20 19 19 21 22 18 14 14 12 9 9 9 9 7 5 3 5 7 9 9 9 7 3 4 2 4 5 5 4 4 6 9 11 14 14 15 12 13 13 13 14 14 12 12 10
3 4 3 3 1 3 4 3 3 3 3 3 3 4 3 4 3 5 6 6 6 7 7 7 7 7 8 9 10 7 6 6 8 7 12 9 15 16 17 18 19 18 17 19 22 18 14 13 9 7 6 7 7 5 4 6 7 8 9 9 8 4 3 4 2 4 3 3 4 4 7 9 12 14 15 13 12 15 17 13 10 11 9 8 11
5 6 5 3 3 2 4 4 3 4 3 3 3 3 2 2 2 2 3 3 4 5 4 3 5 3 7 6 5 5 6 6 6 8 7 8 10 16 15 17 18 17 16 19 20 18 13 10 6 6 5 6 4 4 4 7 8 9 8 9 5 4 4 2 3 4 5 3 3 4 9 11 13 14 13 13 15 16 16 14 11 12 12 10 10
6 4 6 4 3 3 3 4 4 4 3 4 4 3 2 2 2 2 2 3 3 3 3 3 3 3 4 4 4 5 5 5 6 8 8 12 11 15 14 16 17 15 15 18 18 17 15 10 6 5 6 10 5 4 4 4 5 7 6 5 4 4 5 2 3 3 4 4 4 8 10 12 14 14 11 12 14 17 17 14 13 11 12 11 11
6 5 6 5 4 3 4 4 4 4 4 5 4 3 3 2 3 2 2 3 3 3 3 3 3 4 4 4 5 5 5 5 7 11 9 7 8 12 14 14 13 13 15 10 14 13 14 10 7 8 5 4 3 3 4 4 4 3 3 4 4 4 5 3 2 3 4 5 4 6 9 13 14 11 11 12 17 20 17 11 10 11 10 8 6
3 4 4 7 4 3 4 4 4 4 3 5 3 4 3 3 3 3 3 3 3 4 3 3 4 4 5 5 4 4 5 5 5 6 5 6 7 7 8 8 7 7 11 6 7 8 8 4 3 4 4 4 3 4 5 5 4 4 4 4 4 5 3 2 4 4 5 5 4 6 8 10 13 12 13 18 17 11 9 9 11 10 10 7 5
4 4 7 5 5 3 3 4 2 4 4 4 4 3 3 4 4 3 3 3 3 4 4 3 4 4 4 5 5 6 6 5 5 5 6 6 7 7 7 7 7 7 7 6 6 7 6 5 2 3 2 3 3 2 3 3 4 4 3 4 4 3 2 2 1 5 5 6 7 9 8 6 7 10 13 14 12 11 9 9 9 14 13 10 9
2 6 5 5 5 4 4 3 4 4 5 4 3 3 5 4 3 4 3 6 3 3 5 4 4 4 4 4 6 7 6 6 6 5 6 6 6 6 7 7 7 7 7 6 7 6 5 5 4 2 2 3 3 2 2 2 2 3 3 4 4 2 3 4 1 4 6 6 8 11 12 10 8 7 5 11 10 10 10 10 13 13 12 11 11
4 7 5 5 4 6 3 2 5 4 4 3 3 4 4 3 2 2 2 4 3 4 4 4 4 5 3 4 3 5 6 7 6 6 6 6 6 6 6 7 7 7 7 6 6 6 6 5 5 5 3 2 2 1 0 1 2 3 4 4 2 4 4 4 3 2 4 6 6 10 12 11 11 10 9 8 5 3 10 11 13 12 12 12 11
6 8 5 4 6 4 1 3 4 4 4 2 3 4 4 3 3 3 4 2 3 3 4 3 4 4 3 3 3 6 6 6 6 6 5 5 6 7 7 7 7 7 7 7 6 6 6 6 5 5 4 4 2 2 2 3 3 3 3 3 3 5 4 3 4 5 4 5 6 7 10 10 8 10 11 9 8 8 6 6 8 10 11 9 10
8 5 4 5 5 2 2 5 5 5 3 1 5 3 3 3 4 4 3 2 4 4 2 3 3 3 5 3 3 3 4 5 6 6 6 6 6 6 7 7 7 7 7 6 7 5 5 5 6 5 5 4 3 4 3 3 3 4 0 4 4 4 3 4 4 4 5 5 5 5 8 9 7 6 8 7 7 6 6 6 8 8 9 10 10
2 5 5 6 3 2 4 4 4 3 1 3 3 4 3 4 4 3 3 4 4 3 3 3 4 4 3 3 3 3 4 4 5 5 6 6 6 6 6 6 6 7 7 7 6 6 5 5 5 5 5 5 5 4 3 2 2 3 4 5 4 4 4 3 5 3 5 5 4 4 5 8 7 6 6 4 5 5 4 5 7 7 6 8 9
3 7 5 2 3 4 5 4 4 1 1 4 3 4 4 4 4 4 4 4 3 4 5 4 4 3 3 2 2 3 3 4 4 5 4 6 6 6 6 6 7 6 7 7 7 6 5 5 5 5 5 4 5 5 4 4 5 4 4 4 4 4 3 3 5 4 4 4 4 3 4 4 6 6 6 4 4 5 4 4 2 3 10 10 7
5 5 3 2 5 5 3 4 1 1 2 4 4 3 4 4 4 4 4 3 3 3 5 5 5 4 3 3 2 2 1 3 5 4 4 5 6 6 6 6 6 6 6 8 8 7 5 3 4 3 5 5 6 7 5 6 7 6 5 5 3 4 3 3 4 4 3 3 4 3 3 3 3 6 7 6 5 3 5 4 2 1 2 3 6
4 2 1 5 4 2 2 2 1 2 3 3 3 4 4 4 3 3 3 3 3 3 4 5 4 5 3 4 3 2 2 2 2 5 4 5 5 6 6 7 6 6 6 6 7 6 7 8 6 4 6 7 7 6 5 6 5 5 6 5 5 5 3 3 2 3 5 3 3 3 3 3 3 3 3 4 3 3 4 3 4 5 5 6 7
3 4 4 4 2 3 1 3 1 2 2 4 3 4 3 3 4 4 3 2 3 4 4 4 5 5 4 5 4 3 2 2 2 3 5 4 5 6 7 7 7 6 6 5 5 5 6 7 7 7 6 6 5 5 6 5 5 5 5 5 5 4 4 4 4 4 3 2 1 1 1 2 3 2 2 1 2 1 1 2 4 5 7 7 8
5 5 4 2 4 2 1 3 2 3 4 3 4 4 4 3 3 3 3 2 3 4 4 3 4 4 3 5 4 4 3 2 3 2 4 4 5 5 5 6 8 6 6 5 5 6 5 5 7 6 6 6 4 5 5 6 6 5 4 3 3 4 3 3 4 3 3 2 1 1 2 2 3 2 2 1 0 1 2 3 4 5 6 8 9
4 4 5 3 3 4 1 2 4 4 4 4 3 3 3 3 3 3 3 3 3 4 3 3 3 3 3 4 3 3 4 3 2 2 3 4 5 5 5 6 6 6 6 6 6 5 4 4 5 6 5 5 6 6 5 5 4 4 4 4 3 3 3 2 2 1 2 1 1 0 0 0 0 2 2 2 2 4 4 4 4 5 5 6 7
4 4 3 3 3 3 3 2 3 3 3 3 3 3 3 3 3 3 2 3 4 3 3 2 3 2 3 3 3 3 3 3 2 1 3 3 3 4 5 5 6 6 6 6 6 5 4 5 5 5 5 5 5 6 5 4 2 3 3 3 4 3 2 1 1 0 0 1 1 1 1 1 1 2 2 4 4 3 3 4 5 6 6 6 7
2 2 2 2 2 3 3 3 3 3 3 2 2 3 3 3 1 2 4 3 3 3 1 3 3 3 3 3 3 3 3 3 2 1 2 3 4 5 5 5 5 6 6 7 7 7 7 5 5 5 4 3 3 3 3 3 3 2 1 0 1 2 2 1 0 1 2 1 1 1 2 2 1 2 3 3 3 3 3 3 3 4 4 6 7
1 0 0 0 1 3 3 4 2 2 2 1 1 3 2 3 5 5 5 4 4 4 3 2 3 3 3 3 3 4 4 3 3 2 1 1 2 3 4 4 4 5 7 8 8 7 7 8 6 4 5 4 4 4 3 4 2 2 3 3 0 2 3 1 2 2 2 2 3 2 3 3 3 4 3 3 3 3 2 3 3 4 3 4 6
0 1 1 2 1 2 3 6 3 3 3 4 3 2 2 5 1 2 3 3 4 4 3 3 4 3 4 4 4 3 3 4 3 3 4 3 1 1 3 3 3 4 4 5 4 5 5 4 5 2 5 6 4 6 5 2 5 4 3 3 3 1 1 1 2 2 3 3 3 3 3 3 4 3 4 3 2 3 3 3 3 4 4 4 5
1 2 2 3 3 2 2 5 4 4 3 1 1 1 1 0 1 3 2 4 4 5 5 7 6 6 4 4 3 3 3 3 3 3 3 3 4 3 2 2 3 3 3 2 4 4 6 7 6 7 3 4 3 4 7 4 5 3 3 7 5 4 1 1 2 3 3 4 4 4 3 4 5 3 4 4 3 3 4 4 3 4 4 5 5
3 4 3 4 4 3 3 3 3 4 3 2 1 2 1 0 0 1 0 4 2 1 1 4 4 4 4 3 3 4 4 3 2 2 3 3 3 3 4 1 1 1 4 5 4 5 5 5 5 4 8 3 1 2 6 6 2 1 1 1 3 6 4 3 2 3 5 5 4 4 4 4 4 3 2 3 5 4 4 4 4 5 5 5 5
3 4 4 4 4 4 4 4 4 3 3 3 1 2 2 2 2 3 2 3 3 3 3 2 3 4 7 4 3 4 5 4 3 2 2 2 2 3 3 4 2 0 1 3 3 4 4 5 6 6 3 5 6 4 3 4 4 5 5 2 3 1 5 3 5 6 1 2 2 5 3 5 4 5 4 5 5 4 4 4 5 5 6 5 5
3 4 4 4 3 4 3 3 3 3 3 3 3 2 2 2 3 2 1 2 1 3 4 5 5 5 6 8 9 6 5 5 4 3 1 2 2 2 3 3 4 2 1 3 3 2 2 1 1 3 4 2 7 3 2 4 4 3 1 2 4 2 1 3 7 7 2 2 1 1 2 3 5 5 4 6 4 5 5 5 6 5 6 6 6
3 2 3 4 3 4 3 3 3 2 3 3 2 1 3 3 4 6 7 5 5 6 7 5 8 8 8 6 6 5 5 5 4 4 2 2 2 2 2 2 3 4 3 2 3 3 1 1 1 0 1 1 0 3 4 3 3 3 1 1 1 1 4 4 2 6 6 3 3 2 3 4 3 4 4 5 6 7 5 7 6 7 6 6 6
4 3 3 3 3 2 3 2 3 3 3 3 3 2 3 3 3 1 0 0 2 3 1 2 4 6 5 6 6 6 5 6 6 4 4 3 2 1 1 2 2 3 3 2 3 4 4 2 0 0 1 1 1 2 4 5 6 2 3 1 0 0 1 1 3 3 9 6 3 3 3 2 2 3 4 5 5 5 6 5 7 7 7 6 6
4 3 3 3 4 3 3 4 4 4 4 3 4 3 4 3 4 3 1 1 1 3 5 5 4 3 6 6 6 6 6 5 6 6 5 5 4 3 1 1 1 2 1 3 3 3 4 4 2 1 1 2 1 1 3 1 2 4 3 4 3 2 1 1 2 3 4 8 12 2 2 6 4 5 5 6 6 6 6 6 7 7 7 7 7
4 4 4 4 4 5 6 5 7 6 5 5 5 5 4 4 4 4 5 3 1 3 4 3 4 5 5 7 7 7 7 7 6 7 6 6 5 5 4 2 1 1 1 2 3 3 4 4 5 5 5 3 1 1 1 3 1 3 4 2 3 2 2 1 1 1 3 3 9 6 7 3 3 6 6 5 5 5 7 7 7 7 7 8 8
3 3 4 5 5 5 8 9 8 7 6 7 7 8 7 5 7 6 6 6 5 5 4 6 7 6 7 8 7 8 8 8 8 7 7 8 7 6 5 5 4 2 1 1 1 1 2 3 4 4 3 4 3 2 3 5 3 2 2 1 2 3 3 2 1 1 2 3 9 10 9 11 13 8 1 7 7 6 6 7 8 8 8 8 8
4 5 6 6 5 6 7 11 6 7 8 8 8 8 7 7 7 7 7 7 6 6 8 9 8 9 9 9 8 7 7 8 8 8 8 9 8 7 7 6 5 4 3 3 2 1 2 2 3 3 3 4 4 3 3 4 3 4 5 3 5 4 4 3 6 4 3 4 6 8 8 5 9 16 7 2 7 9 9 8 8 8 8 9 8
Wind_Direction
261 220 250 264 274 301 316 317 311 318 324 333 333 336 338 339 337 336 337 338 339 338 337 335 335 333 332 329 326 324 324 323 323 323 321 319 316 314 312 313 308 304 303 305 306 307 307 306 302 302 301 304 306 310 318 316 289 284 274 244 240 232 229 232 193 187 179 183 181 160 159 158 156 156 147 160 176 157 134 115 119 111 113 127 122
257 243 249 266 275 296 317 317 316 319 326 331 334 338 339 339 337 336 337 338 339 338 337 335 334 333 332 325 326 323 324 325 324 323 322 319 319 317 315 311 310 306 304 301 302 304 304 303 300 299 299 302 308 314 317 312 308 282 269 261 246 234 230 214 200 188 186 172 183 165 164 160 156 153 145 158 172 155 129 127 120 104 111 125 120
286 279 248 257 269 292 313 317 316 322 325 331 336 339 340 339 338 338 338 338 338 338 336 335 334 332 330 325 328 326 325 324 324 323 322 319 317 314 311 312 315 313 311 310 306 301 300 299 298 295 296 299 303 308 313 312 309 297 267 259 258 246 236 220 200 212 193 175 185 163 167 166 157 156 155 172 172 146 130 128 123 125 130 123 120
262 243 248 260 276 297 311 314 317 320 325 332 335 338 340 338 339 339 339 338 337 336 336 335 335 334 331 327 329 325 324 324 324 324 323 319 316 315 310 315 320 320 315 312 309 304 300 298 298 297 293 293 298 304 309 307 305 307 266 246 252 257 244 240 203 214 200 179 186 157 166 159 159 159 163 179 160 144 137 136 137 138 131 124 123
241 263 261 267 277 291 294 310 315 321 326 329 332 335 337 338 339 339 338 338 336 335 335 336 336 333 330 329 326 324 324 324 324 324 321 318 318 317 318 320 321 323 321 318 312 307 305 302 298 299 299 293 290 302 305 303 305 308 295 252 250 250 251 236 228 206 207 183 186 160 164 160 157 165 171 165 154 143 144 141 143 139 133 131 126
237 250 254 257 278 283 286 302 315 319 324 328 329 333 337 337 338 339 338 337 336 336 336 336 333 331 330 328 326 324 324 319 321 323 324 323 322 322 320 321 321 321 318 316 316 313 309 306 301 299 296 292 291 303 306 300 300 307 306 270 259 249 230 234 232 221 220 191 184 158 164 160 160 171 168 159 152 148 148 146 147 142 138 138 135
238 267 256 251 266 269 278 303 315 320 325 326 330 335 335 337 340 340 338 337 337 338 337 334 334 334 332 330 328 328 328 321 325 327 328 328 328 327 321 318 317 317 315 315 314 311 306 306 306 303 296 291 288 293 298 295 298 304 304 283 266 270 256 241 237 234 211 205 182 157 168 160 156 161 167 169 162 157 157 153 147 145 151 151 142
271 262 252 248 258 267 284 305 316 322 325 328 334 336 337 340 342 341 339 338 339 339 336 337 337 337 335 334 333 332 330 325 330 329 328 332 331 326 323 322 321 319 317 316 315 314 308 304 308 306 300 294 293 287 293 294 296 301 302 281 262 252 260 221 223 231 233 212 193 168 169 156 156 167 173 172 169 169 166 165 166 165 162 145 133
256 248 239 249 262 270 281 305 323 325 328 333 337 339 341 344 343 342 341 341 340 338 340 341 341 340 338 337 335 334 333 330 331 331 332 329 326 325 324 323 323 322 319 316 316 313 309 305 304 305 300 292 288 292 297 298 293 295 305 295 263 246 247 200 211 228 230 202 194 170 161 149 148 161 168 166 169 174 175 174 174 167 165 134 131
247 261 248 254 262 269 280 310 333 332 331 336 341 341 343 344 345 344 342 343 342 343 344 346 345 342 341 339 337 337 335 332 329 331 327 327 327 327 324 322 319 319 315 311 311 310 307 302 300 299 294 293 290 290 294 299 296 294 306 304 279 243 237 210 204 225 213 172 260 158 147 131 146 158 172 167 173 178 180 177 130 141 139 135 138
258 254 259 260 264 264 278 312 334 332 333 337 341 344 346 345 346 347 348 346 347 347 348 347 345 344 342 339 338 336 335 329 327 326 327 326 324 323 322 320 319 317 314 312 311 308 306 303 300 298 295 288 287 289 292 298 299 297 306 307 305 316 288 221 197 202 185 184 180 161 150 155 175 165 179 169 177 179 183 148 117 114 131 136 146
256 257 260 258 264 273 284 305 325 325 332 335 339 346 347 345 348 351 351 351 350 348 348 348 346 345 343 341 339 338 335 332 328 329 327 326 325 323 322 319 318 317 314 310 310 305 298 297 298 296 293 290 287 288 291 296 301 293 297 302 313 334 340 248 192 196 160 165 238 175 155 160 167 180 181 171 177 178 169 150 158 145 142 145 156
258 259 263 257 269 278 278 292 310 318 325 329 337 345 346 347 350 352 353 354 351 350 349 349 348 347 344 341 340 338 337 334 331 330 326 325 322 320 321 320 317 316 313 312 312 311 303 292 291 291 289 288 285 286 290 294 299 295 301 317 328 347 13 2 199 190 156 158 225 196 170 148 163 184 188 180 176 179 177 176 181 183 170 169 169
277 276 263 262 260 266 278 284 295 308 317 326 333 340 343 348 351 354 353 353 353 352 350 349 349 346 343 342 340 339 337 336 335 333 330 327 324 323 322 319 315 315 312 314 313 311 306 300 288 286 283 280 280 284 287 291 295 288 303 332 340 4 20 4 297 183 177 174 182 201 154 148 169 199 188 193 186 181 176 179 180 176 171 187 171
274 289 303 284 268 270 276 279 286 296 308 321 329 334 340 348 354 355 354 354 354 352 352 351 348 346 345 343 341 340 339 339 338 339 337 331 327 324 322 321 319 315 313 312 310 307 301 294 290 283 280 275 275 279 285 287 286 279 298 329 356 20 19 348 310 190 171 166 178 169 145 174 190 202 193 200 189 192 168 179 178 178 172 186 167
238 267 281 277 260 263 273 281 293 294 302 317 322 325 336 347 356 355 356 355 354 354 353 351 349 348 346 343 342 341 342 342 340 339 338 335 331 330 325 321 317 314 313 314 313 308 300 289 284 285 280 273 269 273 278 286 284 283 299 335 8 19 15 356 296 148 161 150 168 176 160 173 204 201 196 207 182 196 174 176 179 182 177 187 184
285 265 270 268 266 259 263 277 276 291 317 322 320 319 328 342 356 357 356 355 355 355 354 351 349 348 346 343 342 343 344 343 341 340 341 338 337 335 330 322 316 316 316 318 318 316 307 289 285 289 281 271 268 271 275 283 292 290 308 343 6 8 15 1 268 145 161 152 149 178 156 177 209 210 206 206 195 200 189 174 183 181 187 188 194
300 304 261 263 273 266 265 270 286 301 306 320 319 316 314 332 355 355 354 354 354 354 354 352 349 348 345 342 340 341 342 341 340 341 340 339 339 336 333 324 322 326 326 325 321 324 322 304 298 294 279 273 267 267 278 282 294 307 312 355 3 15 5 349 231 150 138 146 143 186 173 183 205 216 210 209 216 195 209 179 183 184 189 178 165
309 302 267 260 260 276 271 271 276 285 293 298 298 300 302 326 351 349 349 348 348 349 349 348 346 344 340 339 338 340 339 340 337 341 339 339 336 334 329 326 328 332 333 326 326 329 323 312 309 293 276 267 265 278 277 278 300 309 344 9 7 23 6 334 196 156 142 149 163 166 178 197 208 220 218 215 215 187 206 205 180 177 178 170 169
290 286 297 261 256 270 271 275 262 266 281 278 284 283 290 326 346 339 340 340 338 341 342 340 339 339 337 336 337 337 335 335 335 338 337 336 331 327 324 328 337 335 335 325 322 328 323 314 308 297 284 276 279 283 268 298 350 17 9 4 1 27 354 317 204 162 164 162 149 189 195 203 211 220 216 217 185 187 198 210 183 177 176 174 185
318 310 306 298 278 258 271 268 257 266 260 266 268 267 275 323 336 321 329 327 325 332 336 335 331 334 333 333 336 330 331 331 329 328 335 329 327 324 322 333 342 338 335 331 326 333 325 317 312 287 288 297 286 326 26 31 22 15 11 359 359 17 345 309 186 167 156 144 159 186 202 214 221 218 216 182 180 190 207 206 183 165 170 187 192
310 299 302 293 306 271 262 257 267 256 242 246 246 246 256 291 287 290 300 303 312 317 329 313 322 323 328 334 328 326 331 327 321 333 332 324 320 320 324 338 342 343 348 340 330 337 330 320 305 296 341 331 27 54 27 17 17 16 9 6 1 355 334 275 171 169 151 153 160 183 207 210 227 224 199 165 194 198 214 202 186 162 173 191 202
292 283 286 301 287 283 270 262 249 246 240 245 245 246 246 253 274 284 287 305 307 312 312 310 309 314 321 326 327 320 330 325 319 327 326 326 324 325 331 339 340 331 355 343 334 339 344 324 313 326 52 45 37 30 35 26 12 3 5 10 355 343 313 218 188 166 152 143 183 190 202 211 222 215 181 177 203 203 207 197 187 167 179 189 192
255 264 278 297 276 261 260 250 250 246 219 246 257 266 265 263 281 287 286 290 299 302 308 307 311 319 323 323 325 323 329 322 324 330 334 333 327 327 332 340 335 327 346 351 338 336 355 355 360 24 22 66 56 20 33 28 19 358 0 9 347 328 304 199 152 139 129 151 177 193 206 207 212 191 175 197 222 201 198 188 168 184 180 176 185
253 294 280 267 273 250 265 268 256 257 240 261 278 284 281 312 298 295 289 293 305 309 312 318 319 325 327 324 320 325 329 325 324 327 334 332 331 334 337 335 331 326 337 354 338 336 348 4 14 29 17 32 40 33 22 22 7 3 359 352 335 331 264 163 149 134 127 126 144 177 197 199 195 189 186 199 207 188 190 182 186 156 148 173 157
285 285 260 267 260 248 229 252 268 247 233 245 251 278 318 297 305 306 320 302 308 311 314 325 328 332 331 324 325 336 334 333 337 338 338 339 336 341 335 331 332 331 332 342 358 340 350 345 41 46 37 47 48 45 42 26 359 350 342 326 340 320 116 80 248 123 118 126 120 102 116 135 173 183 197 197 193 184 184 190 152 144 152 165 174
279 254 271 266 272 275 251 230 239 236 241 242 269 279 274 262 286 298 312 311 319 320 323 328 323 332 329 329 339 339 336 337 338 344 342 340 338 340 333 332 336 336 332 333 1 346 352 345 10 67 63 38 20 34 25 13 353 321 318 321 321 214 122 109 158 109 113 100 96 91 87 87 114 121 162 190 183 182 176 192 149 160 160 167 185
297 268 267 261 276 269 255 195 236 230 249 246 257 267 258 277 279 304 312 279 303 311 306 307 316 326 329 329 330 337 335 333 334 340 344 332 343 337 335 339 338 340 335 335 350 358 353 1 350 20 40 74 20 316 176 1 324 288 298 306 302 119 107 102 78 75 93 97 91 91 86 86 98 107 103 101 88 160 195 178 164 165 172 177 185
277 264 266 288 262 262 302 232 244 246 250 241 253 257 276 286 287 288 284 281 296 282 281 304 316 321 324 330 348 345 339 334 333 334 328 340 340 343 344 343 339 341 342 343 352 350 358 11 3 21 19 34 22 353 10 351 307 316 305 295 98 101 107 115 115 99 80 82 93 89 86 94 98 100 97 96 98 104 117 177 183 189 189 183 194
240 273 290 264 276 307 268 242 231 232 246 206 250 279 268 288 284 278 276 301 284 284 295 307 298 322 322 337 339 341 328 330 328 329 337 339 338 342 344 343 341 342 345 342 349 345 359 10 16 9 19 22 23 15 8 341 327 279 253 80 70 88 86 93 76 84 92 89 94 105 106 92 89 105 112 107 115 128 158 189 187 204 210 199 206
280 269 259 257 271 295 259 240 248 251 216 238 265 261 292 275 280 292 306 286 293 305 302 297 300 300 300 325 333 336 329 334 335 333 333 335 338 343 343 335 348 347 341 343 347 343 352 21 19 12 10 14 32 20 13 357 348 51 77 79 63 80 85 85 94 96 93 96 104 112 109 110 114 101 101 137 142 141 168 197 204 205 234 226 218
233 252 246 263 278 254 252 255 245 262 246 256 271 275 277 275 288 306 295 291 307 306 311 312 301 300 301 317 329 334 326 334 339 335 341 337 336 336 336 347 347 343 345 343 344 347 345 11 25 24 9 1 26 38 22 29 34 27 44 77 92 75 82 87 91 83 95 99 102 98 99 99 94 103 122 143 150 152 165 170 181 207 221 222 235
242 245 260 287 258 254 235 261 254 250 241 251 257 272 279 287 297 301 299 312 320 320 310 310 308 306 306 304 312 322 327 345 331 334 337 343 333 333 341 347 343 340 347 344 342 351 350 8 44 47 31 31 31 27 24 40 38 20 24 19 27 89 84 74 87 89 84 98 91 87 90 90 84 71 75 72 69 109 162 164 181 215 286 273 256
263 276 292 261 250 251 242 287 277 259 250 252 263 275 278 285 287 291 307 325 319 320 302 309 310 311 314 306 305 301 312 330 348 334 344 349 347 339 337 340 343 337 343 357 356 358 1 1 3 39 51 42 33 25 17 42 39 28 25 10 22 17 10 77 77 116 128 118 125 126 128 123 110 109 98 97 99 84 104 153 180 205 220 229 241
264 278 238 251 294 263 248 260 263 253 261 269 272 269 279 287 301 308 314 324 311 311 301 311 314 311 323 310 308 301 304 320 335 344 336 354 353 345 343 335 331 334 344 357 1 359 10 9 353 7 34 53 43 27 29 34 33 46 41 22 20 16 19 15 19 16 20 35 47 64 57 103 115 114 106 97 92 121 125 195 214 224 236 238 242
229 243 258 276 282 276 255 244 277 277 262 254 262 264 276 286 287 291 307 318 314 307 310 312 307 314 322 315 311 305 306 317 328 2 346 349 355 345 333 332 337 336 340 352 9 24 6 12 8 359 16 28 50 47 36 29 26 24 26 63 49 38 26 17 22 16 358 17 23 34 24 20 16 17 14 23 17 310 274 245 239 248 250 251 252
229 245 246 260 280 284 304 252 261 255 271 280 285 291 298 301 303 299 290 301 303 306 312 323 318 322 322 317 320 310 304 310 322 344 353 343 348 344 338 339 337 344 341 349 10 8 18 13 19 17 5 15 31 41 38 31 14 16 17 5 54 92 67 27 29 24 349 36 22 24 80 80 55 6 332 293 268 245 243 251 257 259 274 290 286
239 236 255 249 265 314 321 280 272 264 262 286 306 311 311 310 307 313 310 312 307 299 302 318 315 306 312 306 314 308 297 301 314 331 341 325 336 338 336 352 347 351 349 356 357 355 11 26 25 9 18 25 28 27 21 17 8 355 17 22 354 29 72 125 347 298 144 349 343 349 355 348 345 294 268 261 260 274 279 290 284 269 260 253 252
253 248 261 270 311 309 325 305 292 310 312 313 307 310 317 305 273 349 332 333 334 322 313 328 316 319 302 294 307 311 305 300 303 329 349 342 344 347 350 353 356 352 358 357 1 359 3 15 34 7 3 35 61 23 9 327 323 308 332 51 77 6 338 313 289 46 342 26 4 342 354 290 234 245 256 269 288 292 300 306 304 310 309 311 300
275 308 329 353 322 317 317 298 297 305 309 328 352 343 10 24 343 341 356 353 340 339 340 319 321 326 320 323 312 309 306 304 304 296 305 320 351 346 342 352 4 9 6 3 356 357 355 354 1 9 11 3 19 15 359 355 301 336 321 322 279 180 230 238 300 320 332 284 243 230 242 253 243 245 239 246 264 282 297 288 287 287 296 294 288
24 23 347 323 353 298 343 299 326 3 2 345 355 26 354 338 18 24 311 281 301 312 310 329 339 320 321 320 321 318 310 308 303 323 314 327 334 318 7 352 0 19 14 354 334 336 345 349 339 9 21 13 3 354 351 354 27 353 334 304 315 206 204 323 289 280 262 263 248 257 242 252 262 268 269 278 274 281 275 277 280 282 276 275 282
353 6 328 307 312 324 289 281 316 333 350 317 278 305 227 223 236 274 283 284 323 356 335 344 339 326 328 329 333 334 320 294 294 298 299 315 323 338 7 4 2 359 359 338 347 354 360 8 3 358 43 43 6 2 343 13 25 41 338 329 334 333 194 174 274 276 264 283 285 269 250 243 261 267 293 295 287 278 267 259 259 261 261 259 257
291 302 295 320 317 308 277 289 306 328 342 342 325 306 312 247 178 246 242 304 251 217 245 273 310 319 314 331 344 352 340 326 291 275 274 287 284 318 319 357 22 4 13 359 1 357 358 0 17 26 342 7 348 356 17 44 18 270 229 19 349 3 329 5 329 280 249 239 232 264 282 290 284 303 310 299 287 284 280 279 268 260 258 255 251
332 318 332 325 318 316 335 334 327 346 341 328 298 277 258 263 246 244 250 198 276 320 310 296 340 348 350 349 353 352 342 330 327 291 276 267 262 275 299 325 345 120 55 3 352 349 351 354 3 5 22 351 1 323 32 12 59 19 358 27 283 70 326 340 336 293 329 238 202 229 243 262 283 299 312 286 284 285 280 279 266 261 263 259 260
327 346 332 321 308 306 312 324 339 340 326 329 324 305 339 14 350 354 7 347 1 359 349 352 4 348 335 353 344 342 338 334 337 336 296 282 260 258 271 290 318 316 349 338 334 307 293 280 18 18 39 53 340 337 322 29 31 48 121 350 344 9 257 277 335 291 338 3 237 270 265 256 264 261 256 260 250 253 257 263 258 259 260 260 261
343 310 302 288 288 297 323 346 4 2 359 346 335 14 54 48 21 18 2 5 349 353 7 348 336 343 332 310 321 342 339 340 343 345 346 325 301 266 258 276 293 303 318 319 311 327 306 4 273 134 16 339 159 4 329 329 34 14 87 134 195 263 320 290 357 303 325 282 301 277 238 236 248 244 253 259 260 264 251 257 253 255 250 250 250
334 328 318 311 313 321 353 7 7 16 15 4 4 36 44 54 74 96 128 4 324 286 261 282 301 309 317 322 322 335 350 350 349 356 355 349 345 315 265 257 268 278 300 321 311 297 303 329 150 108 261 144 90 343 305 296 340 28 35 62 40 131 169 335 292 319 324 318 338 1 310 294 280 286 269 258 263 265 262 245 255 253 255 249 249
314 335 357 5 16 1 27 40 43 42 31 12 37 25 67 55 59 57 70 38 332 291 321 321 318 311 333 336 339 344 350 358 355 360 2 0 353 357 352 279 248 259 267 262 260 285 312 306 304 237 176 163 162 252 293 273 35 299 358 350 351 356 15 243 193 221 250 293 305 302 303 303 326 278 252 264 258 255 268 260 256 254 255 251 242
10 18 20 23 36 57 70 65 49 38 22 30 45 33 43 63 77 64 41 21 1 325 321 325 341 346 357 351 360 351 356 358 8 2 2 6 4 355 355 357 345 278 248 252 261 279 275 289 311 322 310 302 224 201 321 274 184 264 346 340 352 343 333 302 287 148 227 287 285 302 310 311 277 252 251 244 259 257 254 261 255 254 253 253 242
7 33 48 53 57 65 65 61 44 36 25 36 43 41 37 43 52 46 50 28 18 3 13 16 14 6 14 7 2 3 360 2 3 4 6 7 3 2 3 1 357 343 299 260 251 240 264 267 267 275 283 286 307 311 270 282 291 258 182 189 342 327 350 0 19 357 319 213 265 300 313 317 313 287 252 296 287 269 264 265 270 264 261 260 253
39 55 53 57 62 64 71 64 47 42 36 39 44 42 40 42 49 44 48 38 23 32 31 25 15 20 20 9 10 0 2 6 3 7 13 7 5 6 6 1 0 5 6 5 341 288 250 226 253 269 281 268 283 295 296 282 289 297 298 285 266 237 230 249 276 280 261 293 303 282 288 267 274 297 297 282 293 291 292 280 272 270 264 260 262